DW9353 Weather Reports


time (UTC)temp
C
wind
direction
speed
KPH
gust
KPH
rain 1hr
cm
rain 24hr
cm
rain mn
cm
humidity
%
barometer
mb
20260505011504 17 232 4.8 16.1 0.00 0.00 0.00 47 1007.2
20260505011004 17 225 4.8 17.7 0.00 0.00 0.00 47 1007.2
20260505010503 17 235 3.2 17.7 0.00 0.00 0.00 48 1007.1
20260505010004 17 228 4.8 17.7 0.00 0.00 0.00 47 1007.0
20260505005503 16 232 4.8 17.7 0.00 0.00 0.00 47 1006.8
20260505005004 16 266 3.2 12.9 0.00 0.00 0.00 49 1006.6
20260505004504 16 233 1.6 14.5 0.00 0.00 0.00 49 1006.6
20260505004004 16 235 0.0 14.5 0.00 0.00 0.00 50 1006.4
20260505003503 16 242 0.0 1.6 0.00 0.00 0.00 52 1006.2
20260505003004 16 231 0.0 4.8 0.00 0.00 0.00 49 1006.1
20260505002503 16 226 1.6 6.4 0.00 0.00 0.00 48 1006.0
20260505002004 16 221 0.0 6.4 0.00 0.00 0.00 48 1005.9
20260505001504 17 212 1.6 4.8 0.00 0.00 0.00 46 1005.8
20260505001004 17 207 1.6 4.8 0.00 0.00 0.00 46 1005.8
20260505000004 17 203 0.0 3.2 0.00 0.00 0.00 44 1005.6
20260504235503 18 211 0.0 3.2 0.00 0.00 0.00 42 1005.5
20260504235003 18 211 0.0 3.2 0.00 0.00 0.00 42 1005.4
20260504234503 18 228 1.6 11.3 0.00 0.00 0.00 39 1005.4
20260504234003 19 228 1.6 11.3 0.00 0.00 0.00 40 1005.3
20260504233504 20 242 0.0 4.8 0.00 0.00 0.00 37 1005.3
20260504233004 20 238 1.6 6.4 0.00 0.00 0.00 38 1005.3
20260504232504 20 242 1.6 11.3 0.00 0.00 0.00 36 1005.2
20260504232004 20 245 1.6 12.9 0.00 0.00 0.00 34 1005.1
20260504231503 20 240 1.6 12.9 0.00 0.00 0.00 34 1004.9
20260504231003 20 240 3.2 14.5 0.00 0.00 0.00 34 1005.0
20260504230503 20 245 4.8 14.5 0.00 0.00 0.00 33 1004.9
20260504230004 21 263 3.2 14.5 0.00 0.00 0.00 34 1004.8
20260504225503 21 255 3.2 11.3 0.00 0.00 0.00 33 1004.7
20260504225004 21 234 3.2 11.3 0.00 0.00 0.00 34 1004.7
20260504224503 21 240 1.6 8.0 0.00 0.00 0.00 34 1004.6
20260504224004 21 252 3.2 8.0 0.00 0.00 0.00 34 1004.6
20260504223004 21 272 3.2 16.1 0.00 0.00 0.00 33 1004.4
20260504222503 21 261 3.2 14.5 0.00 0.00 0.00 33 1004.5
20260504222003 21 262 3.2 14.5 0.00 0.00 0.00 34 1004.5
20260504221503 21 255 4.8 19.3 0.00 0.00 0.00 33 1004.6
20260504221004 21 266 4.8 19.3 0.00 0.00 0.00 33 1004.6
20260504220504 21 252 4.8 12.9 0.00 0.00 0.00 32 1004.6
20260504220004 21 236 3.2 17.7 0.00 0.00 0.00 33 1004.7
20260504215504 21 232 3.2 17.7 0.00 0.00 0.00 33 1004.5
20260504215003 21 260 4.8 17.7 0.00 0.00 0.00 33 1004.6
20260504214503 21 263 6.4 19.3 0.00 0.00 0.00 32 1004.5
20260504214003 22 245 6.4 19.3 0.00 0.00 0.00 31 1004.5
20260504213503 22 237 3.2 17.7 0.00 0.00 0.00 31 1004.5
20260504213004 22 240 1.6 11.3 0.00 0.00 0.00 32 1004.6
20260504212504 22 251 3.2 14.5 0.00 0.00 0.00 31 1004.6
20260504212004 22 241 3.2 14.5 0.00 0.00 0.00 31 1004.6
20260504211503 22 244 6.4 29.0 0.00 0.00 0.00 32 1004.7
20260504210503 22 248 4.8 25.7 0.00 0.00 0.00 31 1004.6
20260504210004 22 253 4.8 22.5 0.00 0.00 0.00 31 1004.7
20260504205004 21 255 3.2 24.1 0.00 0.00 0.00 31 1004.4
20260504204503 21 285 1.6 8.0 0.00 0.00 0.00 32 1004.5
20260504204004 21 272 3.2 19.3 0.00 0.00 0.00 34 1004.5
20260504203503 21 276 4.8 19.3 0.00 0.00 0.00 33 1004.6
20260504203004 21 263 6.4 24.1 0.00 0.00 0.00 31 1004.4
20260504202503 21 257 6.4 30.6 0.00 0.00 0.00 32 1004.6
20260504202004 21 264 4.8 30.6 0.00 0.00 0.00 32 1004.6
20260504201004 22 242 4.8 25.7 0.00 0.00 0.00 30 1004.5
20260504200503 22 242 6.4 25.7 0.00 0.00 0.00 30 1004.5
20260504195503 22 269 6.4 17.7 0.00 0.00 0.00 31 1004.5
20260504195003 22 251 6.4 19.3 0.00 0.00 0.00 30 1004.5
20260504194503 22 245 6.4 27.4 0.00 0.00 0.00 27 1004.5
20260504194003 22 239 6.4 27.4 0.00 0.00 0.00 31 1004.5
20260504193004 22 231 8.0 25.7 0.00 0.00 0.00 28 1004.6
20260504192503 22 238 6.4 20.9 0.00 0.00 0.00 27 1004.7
20260504192004 22 245 6.4 25.7 0.00 0.00 0.00 27 1004.6
20260504191503 22 249 6.4 25.7 0.00 0.00 0.00 30 1004.6
20260504191003 22 258 6.4 24.1 0.00 0.00 0.00 28 1004.7
20260504190504 22 251 4.8 24.1 0.00 0.00 0.00 31 1004.7
20260504190004 22 241 6.4 30.6 0.00 0.00 0.00 30 1004.8
20260504185503 22 240 8.0 30.6 0.00 0.00 0.00 31 1004.7
20260504184503 21 247 4.8 25.7 0.00 0.00 0.00 30 1004.9
20260504184004 22 252 6.4 25.7 0.00 0.00 0.00 28 1004.9
20260504183503 21 255 6.4 19.3 0.00 0.00 0.00 31 1005.2
20260504182504 21 239 4.8 22.5 0.00 0.00 0.00 31 1005.1
20260504182004 21 236 6.4 22.5 0.00 0.00 0.00 32 1005.1
20260504181503 22 254 8.0 30.6 0.00 0.00 0.00 30 1005.1
20260504181004 22 261 6.4 30.6 0.00 0.00 0.00 33 1005.1
20260504180503 22 228 4.8 19.3 0.00 0.00 0.00 33 1005.0
20260504180004 22 215 6.4 27.4 0.00 0.00 0.00 31 1005.1
20260504175504 22 226 6.4 27.4 0.00 0.00 0.00 31 1005.1
20260504175004 22 250 6.4 22.5 0.00 0.00 0.00 30 1005.2
20260504174504 22 239 6.4 20.9 0.00 0.00 0.00 31 1005.1
20260504174004 22 239 6.4 32.2 0.00 0.00 0.00 30 1005.2
20260504173503 22 252 8.0 35.4 0.00 0.00 0.00 31 1005.4
20260504173004 22 258 6.4 35.4 0.00 0.00 0.00 31 1005.3
20260504172503 21 244 8.0 29.0 0.00 0.00 0.00 34 1005.3
20260504172004 21 237 6.4 29.0 0.00 0.00 0.00 32 1005.3
20260504171504 21 258 4.8 22.5 0.00 0.00 0.00 32 1005.4
20260504171004 21 251 8.0 17.7 0.00 0.00 0.00 33 1005.4
20260504151004 19 254 6.4 27.4 0.00 0.00 0.00 36 1006.4
20260504150504 18 246 6.4 27.4 0.00 0.00 0.00 39 1006.5
20260504141003 17 242 9.7 30.6 0.00 0.03 0.00 39 1007.5
20260504130503 15 249 4.8 24.1 0.00 0.03 0.00 46 1008.0
20260504110503 7 231 1.6 8.0 0.00 0.03 0.00 69 1008.9
20260504100503 4 230 0.0 11.3 0.00 0.03 0.00 81 1008.7
20260504082004 5 0 0.0 0.0 0.00 0.03 0.00 81 1008.7
20260504081504 5 0 0.0 0.0 0.00 0.03 0.00 80 1008.6
20260504081004 5 0 0.0 0.0 0.00 0.03 0.00 80 1008.7
20260504080503 5 0 0.0 0.0 0.00 0.03 0.00 82 1008.7
20260504050004 1 0 0.0 0.0 0.00 0.03 0.00 87 1008.5
20260504045503 1 0 0.0 0.0 0.00 0.03 0.00 87 1008.6
20260504044004 1 0 0.0 0.0 0.00 0.03 0.00 89 1008.6
20260504043003 1 0 0.0 0.0 0.00 0.05 0.00 87 1008.6
20260504042503 1 0 0.0 0.0 0.00 0.05 0.00 89 1008.6
20260504042004 1 350 0.0 1.6 0.00 0.05 0.00 87 1008.6
20260504041504 1 350 0.0 1.6 0.00 0.08 0.00 87 1008.5
20260504035503 1 0 0.0 0.0 0.00 0.08 0.08 86 1008.4
20260504035003 1 0 0.0 0.0 0.00 0.08 0.08 86 1008.4
20260504034503 1 0 0.0 0.0 0.00 0.08 0.08 86 1008.4
20260504034004 1 0 0.0 0.0 0.00 0.08 0.08 86 1008.3
20260504033004 1 0 0.0 0.0 0.00 0.08 0.08 86 1008.3
20260504032504 1 0 0.0 0.0 0.00 0.08 0.08 85 1008.3
20260504032004 2 0 0.0 0.0 0.00 0.08 0.08 85 1008.3
20260504031004 2 0 0.0 0.0 0.00 0.08 0.08 84 1008.3
20260504030503 2 0 0.0 0.0 0.00 0.08 0.08 84 1008.3
20260504030004 2 0 0.0 0.0 0.00 0.08 0.08 83 1008.2
20260504025503 2 0 0.0 0.0 0.00 0.08 0.08 83 1008.3
20260504025003 2 0 0.0 0.0 0.00 0.08 0.08 83 1008.2
20260504024003 2 0 0.0 0.0 0.00 0.08 0.08 82 1008.2
20260504023503 2 0 0.0 0.0 0.00 0.08 0.08 81 1008.2
20260504023003 3 0 0.0 0.0 0.00 0.08 0.08 80 1008.2
20260504022503 3 0 0.0 0.0 0.00 0.08 0.08 80 1008.2
20260504022003 3 0 0.0 0.0 0.00 0.08 0.08 80 1008.1
20260504021503 3 0 0.0 0.0 0.00 0.08 0.08 79 1008.1
20260504021003 3 0 0.0 0.0 0.00 0.08 0.08 79 1008.1
20260504020504 3 0 0.0 0.0 0.00 0.08 0.08 78 1008.0
20260504015503 3 0 0.0 0.0 0.00 0.08 0.08 76 1008.0
20260504015003 4 0 0.0 0.0 0.00 0.08 0.08 75 1008.0
20260504014503 4 0 0.0 0.0 0.00 0.08 0.08 74 1007.9
20260504014003 4 0 0.0 0.0 0.00 0.08 0.08 73 1007.9
20260504013004 5 0 0.0 0.0 0.00 0.08 0.08 71 1007.9
20260504012503 5 0 0.0 0.0 0.00 0.08 0.08 70 1007.9